Location: Passau
(48.5830°N, 13.4830°E)
Time: 20:28:59
(UTC+02:00)

S-56A Canister/Altair - Pass Details

Date: 24 May 2024
Orbit: 637 x 2489 km, 38.9° (Epoch: 15 June)

Event Time Altitude Azimuth Distance (km) Brightness Sun altitude
Rises 05:59:50 0° 216° (SW) 6,071 11.6 5.7°
Reaches altitude 10° 06:04:38 10° 208° (SSW) 4,922 11.2 6.4°
Maximum altitude 06:15:39 31° 154° (SSE) 3,005 10.7 8.1°
Drops below altitude 10° 06:24:05 10° 98° (E) 3,748 12.3 9.4°
Sets 06:27:10 0° 88° (E) 4,471 13.1 9.8°
